Voltar ao catálogo

TAURUS DEB

AtivoSSO
NORAD 26035·DEBRIS·🇺🇸 United States

Lançado Dec 21, 1999 de Vandenberg Space Force Base

Loading…

Próximas Passagens (próximas 24 horas)

TLE

AtualizadoSource: Space-Track

Época: Sep 14, 2026, 09:17 UTC

1 26035U 99070D   26257.38691436  .00000301  00000-0  65422-4 0  9990
2 26035  98.3940  48.7679 0024439 219.2261 170.3175 14.65059915425502

Acompanhe TAURUS DEB em tempo real com AllMySat

Download on the App Store